EW5186 Weather Reports


time (UTC)temp
F
wind
direction
speed
knots
gust
knots
rain 1hr
in
rain 24hr
in
rain mn
in
humidity
%
barometer
mb
20260505041602 51 100 0.0 0.0 0.00 0.00 0.00 82 1012.9
20260505040100 51 142 0.0 0.9 0.00 0.00 0.00 82 1013.0
20260505034543 51 91 0.0 0.9 0.00 0.00 0.00 81 1013.0
20260505033048 52 138 0.0 1.7 0.00 0.00 0.00 80 1013.0
20260505031528 53 111 0.0 2.6 0.00 0.00 0.00 79 1013.0
20260505030027 53 115 0.0 1.7 0.00 0.00 0.00 78 1013.0
20260505024549 53 103 0.0 1.7 0.00 0.00 0.00 79 1013.1
20260505023036 53 85 0.0 1.7 0.00 0.00 0.00 79 1013.0
20260505021542 53 151 0.0 0.9 0.00 0.00 0.00 79 1013.1
20260505020025 53 121 0.0 0.9 0.00 0.00 0.00 79 1013.0
20260505014527 53 138 0.0 2.6 0.00 0.00 0.00 77 1012.9
20260505013024 54 133 0.0 1.7 0.00 0.00 0.00 77 1012.9
20260505011507 54 120 0.0 4.3 0.00 0.00 0.00 75 1012.8
20260505010006 55 66 0.0 5.2 0.00 0.00 0.00 74 1012.6
20260505004549 55 86 0.9 4.3 0.00 0.00 0.00 72 1012.3
20260505003047 55 72 0.0 4.3 0.00 0.00 0.00 72 1012.3
20260505001531 55 148 0.0 1.7 0.00 0.00 0.00 71 1012.0
20260505000029 56 143 0.0 4.3 0.00 0.00 0.00 69 1011.8
20260504234511 57 129 0.0 2.6 0.00 0.00 0.00 67 1011.6
20260504233009 59 198 0.9 7.8 0.00 0.00 0.00 64 1011.4
20260504231552 60 79 0.9 4.3 0.00 0.00 0.00 62 1011.3
20260504230051 61 34 0.0 4.3 0.00 0.00 0.00 60 1011.2
20260504224534 62 242 0.0 6.1 0.00 0.00 0.00 58 1011.1
20260504223134 63 223 0.0 7.0 0.00 0.00 0.00 56 1011.1
20260504221514 64 140 0.9 7.0 0.00 0.00 0.00 54 1011.1
20260504220020 65 136 2.6 8.7 0.00 0.00 0.00 53 1011.3
20260504214557 66 153 0.9 7.8 0.00 0.00 0.00 53 1011.2
20260504213117 67 138 2.6 12.2 0.00 0.00 0.00 49 1011.1
20260504211537 67 136 2.6 7.8 0.00 0.00 0.00 49 1011.0
20260504210036 67 98 2.6 7.8 0.00 0.00 0.00 49 1011.0
20260504204531 68 87 0.9 7.0 0.00 0.00 0.00 48 1011.0
20260504203026 69 4 0.9 7.0 0.00 0.00 0.00 48 1011.0
20260504201524 69 269 2.6 9.6 0.00 0.00 0.00 48 1011.0
20260504200023 69 323 1.7 8.7 0.00 0.00 0.00 48 1011.0
20260504194523 69 50 0.0 8.7 0.00 0.00 0.00 44 1011.0
20260504193020 69 172 2.6 8.7 0.00 0.00 0.00 46 1011.1
20260504191518 68 328 1.7 11.3 0.00 0.00 0.00 44 1011.1
20260504190019 69 293 1.7 9.6 0.00 0.00 0.00 48 1011.3
20260504184523 68 176 0.9 12.2 0.00 0.00 0.00 43 1011.2
20260504181501 68 223 3.5 11.3 0.00 0.00 0.00 39 1011.5
20260504180100 68 327 2.6 10.4 0.00 0.00 0.00 41 1011.6
20260504174558 69 236 3.5 10.4 0.00 0.00 0.00 40 1011.7
20260504173059 68 116 0.9 9.6 0.00 0.00 0.00 43 1012.1
20260504171556 68 307 3.5 10.4 0.00 0.00 0.00 42 1012.0
20260504081541 38 109 0.0 0.0 0.00 0.00 0.00 78 1013.9